Location: Little Maitland River
(43.8022°N, 81.1549°W)
Time: 04:35:57
(UTC+00:00)

Daily predictions for brighter satellites

Satellite Brightness Start Highest point End
(mag) Time Altitude Azimuth Time Altitude Azimuth Time Altitude Azimuth
Meteor 1-5 Rocket 4.4 00:00:10 10° NNW 00:05:28 69° W 00:10:53 10° S
Cosmos 372 Rocket 3.8 00:02:34 10° S 00:07:35 68° ESE 00:07:35 68° ESE
Cosmos 1980 Rocket 2.0 00:03:31 10° SSW 00:09:09 77° ESE 00:10:06 61° NE
USA 81 4.0 00:07:01 10° N 00:12:18 84° W 00:17:34 10° S
NOAA 6 3.9 00:09:46 10° SSE 00:14:53 89° W 00:20:01 10° NNW
Cosmos 2369 4.4 00:10:10 10° S 00:14:04 39° SSE 00:14:04 39° SSE
Cosmos 1244 Rocket 4.3 00:10:49 10° N 00:17:08 78° E 00:23:19 10° SSE
YAOGAN 1 3.5 00:18:40 10° S 00:22:44 45° W 00:26:51 10° NNW
USA 238 DEB 3.4 00:18:14 10° SW 00:24:17 88° NW 00:25:20 65° NNE
USA 238 3.4 00:18:19 10° SW 00:24:23 89° NW 00:25:24 66° NE
Cosmos 2263 Rocket 2.1 00:19:15 10° NNW 00:24:57 90° ENE 00:25:14 82° SSE
USA 215 3.8 00:29:21 40° NNE 00:29:21 40° NNE 00:35:07 10° NW
Meteor 2-2 Rocket 4.2 00:25:19 10° SSW 00:30:59 80° W 00:31:31 72° NNW
Cosmos 2227 Rocket 3.3 00:30:54 10° NW 00:36:11 42° WSW 00:41:26 10° S
SL-08 R/B 4.4 00:30:20 10° N 00:36:41 90° W 00:43:02 10° S
BREEZE-M DEB (TANK) 4.0 00:45:17 10° WNW 00:49:53 88° SSW 00:51:35 63° ESE
Cosmos 1697 Rocket 4.5 00:46:39 10° WSW 00:51:18 26° NW 00:53:21 21° NNW
Cosmos 1980 Rocket 4.3 09:04:59 19° SE 09:04:59 19° SE 09:06:39 10° SE
CZ-3 R/B 4.3 09:04:09 43° SW 09:05:40 44° SSW 09:16:34 10° SE
COSMOS 2455 4.2 09:12:03 34° ENE 09:12:03 34° ENE 09:16:38 10° ESE
USA 59 Rocket 2.4 09:31:36 20° E 09:31:36 20° E 09:33:33 10° ESE
USA 234 4.5 09:30:47 10° NE 09:35:12 29° N 09:35:12 29° N
Cosmos 2322 Rocket 4.4 09:52:28 12° N 09:55:56 20° NE 09:59:59 10° E
NOSS 3-1 (C) 4.3 09:58:59 38° NNW 10:01:59 63° NE 10:10:44 10° SE
Cosmos 1898 Rocket 3.6 10:06:46 66° NNE 10:07:13 70° ENE 10:12:28 10° SSE
Cosmos 2180 Rocket 4.3 10:06:08 53° NNW 10:07:47 84° W 10:14:08 10° S
IRS-1D 4.2 10:06:13 10° NNE 10:11:06 51° E 10:16:03 10° S
Cosmos 2237 4.4 10:10:43 45° N 10:12:25 67° ENE 10:18:04 10° SE
Cosmos 1726 Rocket 4.4 10:14:07 35° NNE 10:15:24 47° ENE 10:19:27 10° SSE
COSMOS 2406 3.4 10:10:02 10° SSW 10:15:38 68° ESE 10:21:17 10° NNE
Cosmos 2082 Rocket 2.3 10:24:12 53° NNW 10:24:12 53° NNW 10:29:01 10° NNE
SL-16 R/B 3.1 10:20:26 21° N 10:23:55 47° ENE 10:29:20 10° SE
Cosmos 1937 Rocket 3.4 10:28:03 41° NNW 10:29:52 80° ENE 10:34:59 10° SSE
Aureole 1 Rocket 4.3 10:28:36 38° NW 10:31:25 61° WSW 10:38:44 10° S
Cosmos 372 Rocket 3.9 10:31:50 58° WSW 10:31:50 58° WSW 10:36:28 10° S
SWAS 4.3 10:31:50 80° ESE 10:31:50 80° ESE 10:35:40 10° SSE
Helios 1A Rocket 3.8 10:29:19 10° SE 10:32:24 37° ENE 10:33:19 30° NE
Cosmos 1892 Rocket 3.9 10:30:26 10° S 10:34:44 65° E 10:39:06 10° NNE
SL-4 R/B 3.3 10:43:56 21° NNE 10:43:56 21° NNE 10:46:01 10° ENE
Cosmos 1980 Rocket 3.5 10:46:48 23° SW 10:46:48 23° SW 10:49:35 10° SSW
FengYun 1-2 T 4.3 10:41:37 10° N 10:47:08 55° WNW 10:52:37 10° SSW
Cosmos 2278 4.1 10:43:19 17° NNW 10:47:41 62° ENE 10:53:15 10° SE
Cosmos 1092 Rocket 4.2 10:41:56 10° S 10:48:11 72° E 10:54:24 10° NNE
NOAA 12 4.0 10:42:59 10° NNE 10:48:18 83° WNW 10:53:33 10° SSW
Cosmos-2242 3.9 10:44:38 10° N 10:48:44 46° ENE 10:52:46 10° SSE
Cosmos 489 Rocket 4.4 10:43:20 10° SSW 10:49:34 62° WNW 10:55:48 10° NNE
COSMO-SKYMED 1 2.5 10:46:06 10° SSE 10:50:12 78° ENE 10:53:04 20° N
Cosmos 1428 Rocket 4.4 10:45:34 10° SSW 10:51:43 65° W 10:57:59 10° N
Nadezhda 4 Rocket 4.0 10:45:37 10° SSW 10:51:46 55° WNW 10:57:56 10° N
Cosmos 2369 4.0 10:51:35 38° WNW 10:52:42 42° WSW 10:57:59 10° S
COSMOS 2455 3.2 10:55:14 34° WNW 10:57:09 44° WSW 11:02:48 10° S
CZ-4 R/B 3.6 10:54:34 10° N 10:59:10 64° WNW 11:03:42 10° SSW
Cosmos 2195 Rocket 4.5 11:00:02 10° SSW 11:06:12 63° W 11:12:30 10° N
Cosmos 405 Rocket 4.0 11:05:54 10° SSE 11:08:53 35° E 11:11:54 10° NNE
SKYMED 2 3.9 11:04:55 10° S 11:09:03 43° W 11:10:58 27° NW
NOSS 3-1 (A) 4.2 11:03:21 16° NNW 11:09:31 76° NE 11:18:29 10° SE
Cosmos 2058 Rocket 3.0 11:06:19 10° N 11:10:47 89° W 11:15:10 10° S
Meteor 2-2 Rocket 4.2 11:07:57 10° N 11:13:41 89° WSW 11:19:29 10° S
Tiangong -0.1 11:14:12 17° SW 11:14:48 18° SSW 11:17:04 10° SSE
Cosmos 2333 Rocket 2.2 11:10:36 12° NNW 11:16:00 88° ENE 11:21:45 10° SSE
Meteor 2-20 4.4 11:10:05 10° NNW 11:16:08 65° W 11:22:07 10° S
NOSS 2-1 (D) 4.4 11:15:50 27° W 11:16:50 30° WSW 11:21:12 10° S
Cosmos 2360 Rocket 2.6 11:12:10 10° NNW 11:17:46 62° ENE 11:23:19 10° SE
USA 234 4.4 11:12:46 10° ENE 11:18:13 29° N 11:22:33 15° NW
USA 59 Rocket 1.1 11:17:18 25° W 11:18:16 27° WSW 11:22:34 10° S
IGS 5A 3.6 11:16:06 10° NNE 11:20:07 74° ESE 11:24:07 10° S
Cosmos 841 Rocket 4.3 11:18:55 18° WSW 11:21:54 29° WNW 11:26:29 10° N
NOSS 2-1 (E) 4.5 11:25:21 23° W 11:26:53 30° WSW 11:31:14 10° S
Cosmos 158 Rocket 4.2 11:25:21 10° SSW 11:30:40 75° ESE 11:35:55 10° NNE
BREEZE-M DEB (TANK) 2.5 11:32:25 27° NNW 11:33:00 35° NNE 11:35:08 10° E
BREEZE-M DEB (TANK) 3.8 11:33:23 21° NW 11:34:47 33° N 11:39:30 10° ENE
Cosmos 2219 Rocket 2.9 11:30:13 10° NNW 11:35:46 52° ENE 11:41:14 10° SE
SL-08 ROCKET BODY 4.4 11:31:12 10° S 11:37:02 84° E 11:42:54 10° N
Meteor 2-20 Rocket 4.3 11:32:22 10° NNW 11:38:01 61° W 11:43:37 10° S
Cosmos 2322 Rocket 2.2 11:34:56 10° NNW 11:40:38 79° WSW 11:46:18 10° SSE
Meteor 2-6 Rocket 4.4 11:36:57 10° N 11:42:57 89° E 11:48:54 10° S
Cosmos 1484 Rocket 2.8 11:41:29 10° N 11:44:42 39° WNW 11:47:52 10° SW
Cosmos 1758 Rocket 3.5 11:40:32 10° S 11:44:57 83° W 11:49:23 10° N
Cosmos 1437 Rocket 4.1 11:43:13 10° N 11:46:25 34° ENE 11:49:37 10° SE
Cosmos 2151 3.2 11:49:16 10° S 11:53:19 71° E 11:57:24 10° NNE
